This demonstration page uses our WeatherBlox Daily Observations layout. Learn more.

Left ArrowRight Arrow

40.92945, -100.16068

Hourly Observations for November 23, 2015

Temp ( °F °C ) Dew Point ( °F °C ) Humidity (%) Winds ( mph kmh ) Pressure ( in mb ) Visibility ( mi km ) Precip ( " mm )
12:15 am 00:15 Clear 28 -2.1 24 -4.2 86 86 WNW 6 9 30.21 1023 10 16 N/A
12:35 am 00:35 Clear 28 -2.3 24 -4.3 86 86 W 3 6 30.21 1023 10 16 N/A
12:55 am 00:55 Clear 27 -2.6 24 -4.6 86 86 N N/A 30.18 1022 10 16 N/A
1:15 am 01:15 Clear 27 -2.6 24 -4.5 87 87 NW 6 9 30.18 1022 10 16 N/A
1:35 am 01:35 Clear 27 -3 24 -4.6 89 89 NNW 6 9 30.18 1022 10 16 N/A
1:55 am 01:55 Clear 27 -2.6 24 -4.5 87 87 NNW 6 9 30.18 1022 10 16 N/A
2:15 am 02:15 Clear 26 -3.1 23 -4.8 88 88 NW 5 7 30.18 1022 10 16 N/A
2:35 am 02:35 Clear 27 -2.9 23 -4.8 87 87 W 8 13 30.21 1023 10 16 N/A
2:55 am 02:55 Clear 27 -2.6 24 -4.3 88 88 WNW 7 11 30.18 1022 10 16 N/A
3:15 am 03:15 Clear 28 -2.5 24 -4.3 88 88 NW 3 6 30.18 1022 10 16 N/A
3:35 am 03:35 Clear 28 -2.5 24 -4.4 87 87 NW 3 6 30.18 1022 10 16 N/A
3:55 am 03:55 Clear 28 -2.4 24 -4.4 86 86 NW 3 6 30.18 1022 10 16 N/A
4:15 am 04:15 Clear 26 -3.2 23 -5.1 87 87 W 6 9 30.18 1022 10 16 N/A
4:35 am 04:35 Clear 27 -3 24 -4.7 88 88 W 6 9 30.18 1022 10 16 N/A
4:55 am 04:55 Clear 28 -2.5 25 -4 90 90 W 7 11 30.18 1022 10 16 N/A
5:15 am 05:15 Clear 28 -2.4 25 -4.1 88 88 WNW 5 7 30.18 1022 10 16 N/A
5:35 am 05:35 Clear 27 -2.6 24 -4.3 88 88 WNW 7 11 30.21 1023 10 16 N/A
5:55 am 05:55 Clear 27 -2.6 24 -4.2 89 89 W 5 7 30.21 1023 10 16 N/A
6:15 am 06:15 Clear 27 -3 24 -4.7 88 88 WNW 5 7 30.21 1023 10 16 N/A
6:35 am 06:35 Clear 26 -3.5 23 -5 89 89 WNW 3 6 30.21 1023 10 16 N/A
6:55 am 06:55 Clear 26 -3.3 24 -4.7 90 90 WNW 7 11 30.21 1023 10 16 N/A
7:15 am 07:15 Clear 26 -3.1 24 -4.6 90 90 NW 7 11 30.21 1023 10 16 N/A
7:35 am 07:35 Clear 27 -3 24 -4.5 90 90 WNW 7 11 30.21 1023 10 16 N/A
7:55 am 07:55 Sunny 27 -2.6 25 -4.1 90 90 W 6 9 30.21 1023 10 16 N/A
8:15 am 08:15 Sunny 29 -1.9 26 -3.5 89 89 W 6 9 30.21 1023 10 16 N/A
8:35 am 08:35 Sunny 30 -1 27 -3 86 86 W 5 7 30.18 1022 10 16 N/A
8:55 am 08:55 Sunny 32 undefined 29 -1.9 87 87 W 5 7 30.18 1022 10 16 N/A
9:15 am 09:15 Sunny 34 1.2 30 -1.2 84 84 W 3 6 30.21 1023 10 16 N/A
9:35 am 09:35 Sunny 36 2.3 30 -1 79 79 NW 3 6 30.15 1021 10 16 N/A
9:55 am 09:55 Sunny 39 3.8 32 -0.2 75 75 NW 5 7 30.15 1021 10 16 N/A
10:15 am 10:15 Sunny 42 5.5 32 -0.1 68 68 NW 6 9 30.12 1020 10 16 N/A
10:35 am 10:35 Sunny 44 6.5 32 undefined 64 64 WNW 3 6 30.12 1020 10 16 N/A
10:55 am 10:55 Sunny 45 7.2 33 0.4 62 62 WNW 3 6 30.12 1020 10 16 N/A
11:15 am 11:15 Sunny 48 8.9 34 1.2 59 59 N N/A 30.09 1019 10 16 N/A
11:35 am 11:35 Sunny 50 10.1 34 1.3 55 55 N N/A 30.09 1019 10 16 N/A
11:55 am 11:55 Sunny 53 11.6 34 1.3 50 50 N N/A 30.03 1017 10 16 N/A
12:15 pm 12:15 Sunny 55 12.7 34 1.2 46 46 E 5 7 30.03 1017 10 16 N/A
12:35 pm 12:35 Sunny 57 13.9 33 0.3 40 40 E 3 6 30.00 1016 10 16 N/A
12:55 pm 12:55 Sunny 58 14.6 32 0.2 38 38 SE 5 7 30.00 1016 10 16 N/A
1:15 pm 13:15 Sunny 59 15 31 -0.3 35 35 ESE 7 11 30.00 1016 10 16 N/A
1:35 pm 13:35 Sunny 60 15.7 28 -2.2 29 29 ESE 9 15 30.00 1016 10 16 N/A
1:55 pm 13:55 Sunny 60 15.8 28 -2 30 30 ESE 10 17 30.00 1016 10 16 N/A
2:15 pm 14:15 Sunny 61 16 29 -1.7 30 30 ESE 10 17 29.97 1015 10 16 N/A
2:35 pm 14:35 Sunny 61 16.1 30 -1.1 31 31 ESE 12 19 29.97 1015 10 16 N/A
2:55 pm 14:55 Sunny 62 16.5 31 -0.8 31 31 ESE 10 17 29.94 1014 10 16 N/A
3:15 pm 15:15 Sunny 62 16.5 30 -1 30 30 ESE 10 17 29.94 1014 10 16 N/A
3:35 pm 15:35 Sunny 62 16.5 31 -0.8 31 31 SE 8 13 29.91 1013 10 16 N/A
3:55 pm 15:55 Sunny 62 16.5 27 -2.6 27 27 SSE 14 22 29.91 1013 10 16 N/A
4:15 pm 16:15 Sunny 60 15.7 29 -1.7 30 30 SSE 9 15 29.94 1014 10 16 N/A
4:35 pm 16:35 Sunny 57 14 28 -2.2 33 33 SSE 12 19 29.94 1014 10 16 N/A
4:55 pm 16:55 Sunny 55 12.6 29 -1.5 38 38 SSE 9 15 29.94 1014 10 16 N/A
5:15 pm 17:15 Sunny 51 10.7 30 -1 45 45 SSE 9 15 29.97 1015 10 16 N/A
5:35 pm 17:35 Clear 52 11.1 30 -1.1 43 43 SE 9 15 29.97 1015 10 16 N/A
5:55 pm 17:55 Clear 51 10.5 30 -0.9 45 45 SSE 9 15 29.97 1015 10 16 N/A
6:15 pm 18:15 Clear 48 9.1 31 -0.7 51 51 SE 8 13 30.00 1016 10 16 N/A
6:35 pm 18:35 Clear 51 10.5 30 -1 45 45 SE 10 17 29.97 1015 10 16 N/A
6:55 pm 18:55 Clear 51 10.5 30 -1 45 45 SE 13 20 29.97 1015 10 16 N/A
7:15 pm 19:15 Clear 50 10 30 -1 47 47 SE 12 19 29.97 1015 10 16 N/A
7:35 pm 19:35 Clear 48 9 31 -0.7 51 51 SE 10 17 30.00 1016 10 16 N/A
7:55 pm 19:55 Clear 46 7.5 31 -0.5 57 57 SE 9 15 30.00 1016 10 16 N/A
8:15 pm 20:15 Clear 44 6.5 31 -0.3 62 62 SE 9 15 30.00 1016 10 16 N/A
8:35 pm 20:35 Clear 42 5.3 31 -0.5 67 67 ESE 7 11 30.03 1017 10 16 N/A
8:55 pm 20:55 Clear 40 4.6 31 -0.5 70 70 ESE 7 11 30.03 1017 10 16 N/A
9:15 pm 21:15 Clear 38 3.2 31 -0.6 76 76 E 7 11 30.06 1018 10 16 N/A
9:35 pm 21:35 Clear 37 2.7 31 -0.7 79 79 E 7 11 30.06 1018 10 16 N/A
9:55 pm 21:55 Clear 38 3.1 31 -0.4 78 78 ESE 7 11 30.06 1018 10 16 N/A
10:15 pm 22:15 Clear 38 3.3 31 -0.5 76 76 ESE 7 11 30.06 1018 10 16 N/A
10:35 pm 22:35 Clear 38 3.4 31 -0.4 76 76 SE 7 11 30.06 1018 10 16 N/A
10:55 pm 22:55 Clear 39 3.9 31 -0.5 73 73 SE 7 11 30.00 1016 10 16 N/A
11:15 pm 23:15 Clear 38 3.5 30 -1 73 73 SE 5 7 30.00 1016 10 16 N/A
11:35 pm 23:35 Clear 37 2.7 29 -1.5 74 74 ESE 6 9 30.03 1017 10 16 N/A
11:55 pm 23:55 Clear 32 -0.1 28 -2.5 84 84 E 6 9 30.06 1018 10 16 N/A

Powered by AerisWeather